Flag for Canada Weather past 2 weeks in Rainy River, Ontario, Canada

Now
49 °F

Clear.


Feels Like: 49 °F
Forecast: 47 / 69 °F
Wind: No wind

Location: Baudette International Airport

Current Time: Sep 21, 2014 at 11:22:35 PM

Latest Report: Sep 21, 2014 at 10:53 PM


Visibility: 10 mi

Pressure: 30.18 "Hg

Humidity: 93%

Dew point: 47 °F

Location of Rainy RiverLocation

Historic Weather in Rainy River — Graph

°F

Rainy River temperature yesterday

Maximum temperature yesterday: 62 °F (at 2:53 PM)
Minimum temperature yesterday: 50 °F (at 7:53 AM)
Average temperature yesterday: 54 °F

Past Weeks' High & Low Weather Summary

 TemperatureHumidityPressure
High79 °F (Sep 8, 4:53 PM)100% (Sep 18, 7:01 AM)30.46 "Hg (Sep 18, 7:01 AM)
Low31 °F (Sep 13, 4:53 AM)35% (Sep 15, 2:53 PM)29.51 "Hg (Sep 19, 8:53 PM)
Average52 °F76%30.02 "Hg
* Reported Sep 6 9:53 PM — Sep 21 9:53 PM, Rainy River, Weather by CustomWeather, © 2014

Note: Actual official high and low records may vary slightly from our data, if they occured in-between our weather recording intervals... More about our weather records

Advertising

Rainy River weather history for previous 24 hours

 ConditionsComfort  
Time TempWeatherWind HumidityBarometerVisibility
9:53 PM
Sep 21
52 °FOvercast.3 mph89%30.19 "Hg10 mi
8:53 PM52 °FPassing clouds.No wind86%30.19 "Hg10 mi
7:53 PM53 °FSunny.3 mph83%30.19 "Hg10 mi
6:53 PM57 °FSunny.3 mph74%30.19 "Hg10 mi
5:53 PM59 °FPartly sunny.9 mph72%30.19 "Hg10 mi
4:53 PM60 °FBroken clouds.8 mph67%30.18 "Hg10 mi
3:53 PM63 °FSunny.9 mph58%30.18 "Hg10 mi
2:53 PM61 °FSunny.7 mph58%30.19 "Hg10 mi
1:53 PM60 °FSunny.9 mph65%30.19 "Hg10 mi
12:53 PM59 °FScattered clouds.8 mph72%30.20 "Hg10 mi
11:53 AM58 °FScattered clouds.9 mph70%30.20 "Hg10 mi
10:53 AM57 °FScattered clouds.6 mph72%30.19 "Hg10 mi
9:53 AM54 °FScattered clouds.8 mph83%30.16 "Hg10 mi
8:53 AM54 °FPassing clouds.7 mph90%30.13 "Hg10 mi
8:00 AM51 °FPassing clouds.6 mph92%30.09 "Hg10 mi
6:53 AM50 °FPassing clouds.No wind93%30.07 "Hg10 mi
6:03 AM49 °FPartly cloudy.5 mph97%30.03 "Hg10 mi
5:53 AM49 °FPassing clouds.3 mph97%30.04 "Hg8 mi
4:53 AM48 °FPassing clouds.5 mph96%30.01 "Hg10 mi
3:53 AM49 °FPassing clouds.3 mph93%29.99 "Hg10 mi
2:53 AM50 °FOvercast.5 mph93%29.96 "Hg10 mi
1:53 AM50 °FOvercast.5 mph93%29.96 "Hg10 mi
12:53 AM50 °FLight rain. Overcast.7 mph89%29.94 "Hg10 mi
11:53 PM
Sep 20
50 °FLight rain. Overcast.9 mph93%29.92 "Hg10 mi
Weather by CustomWeather, © 2014

See weather overviewHow to use our weather pages